Weather History for Plattsburgh, NY

Change the Weather History Date:

Sunday, February 3, 2013

  Actual Average Record
Temperature  
Mean Temperature 15 °F 17 °F  
Max Temperature 22 °F 28 °F 59 °F (1991)
Min Temperature 7 °F 7 °F -21 °F (1971)
Degree Days  
Heating Degree Days 50 48  
Month to date heating degree days 147 144  
Since 1 July heating degree days 4217 4520  
Moisture  
Dew Point 11 °F    
Average Humidity 80    
Maximum Humidity 92    
Minimum Humidity 68    
Precipitation  
Precipitation T in - 0.70 in (1983)
Month to date precipitation T  
Year to date precipitation 0.75  
Sea Level Pressure  
Sea Level Pressure 29.93 in    
Wind  
Wind Speed 3 mph (NNW)    
Max Wind Speed 9 mph    
Max Gust Speed 12 mph    
Visibility 9 miles    
Events      
T = Trace of Precipitation, MM = Missing Value Source: NWS Daily Summary

Daily Weather History Graph

Daily Weather History Graph

Search for Another Location

Airport:

Trip Planner

Search our weather history database for the weather conditions in past years. The results will help you decide how hot, cold, wet, or windy it might be!

Date:

Astronomy

Feb. 03, 2013 Rise Set
Actual Time 7:10 AM EST 5:05 PM EST
Civil Twilight 6:39 AM EST 5:36 PM EST
Nautical Twilight 6:04 AM EST 6:11 PM EST
Astronomical Twilight 5:30 AM EST 6:45 PM EST
Moon 12:35 AM EST (2/3) 10:39 AM EST (2/3)
Length of Visible Light 10h 57m
Length of Day
9h 55m
Waning Gibbous, 49% of the Moon is Illuminated
Feb 3
Waning Gibbous
Feb 10
New
Feb 17
First Quarter
Feb 25
Full
Mar 4
Last Quarter

Hourly Weather History & Observations

Time (EST) Temp. Windchill Dew Point Humidity Pressure Visibility Wind Dir Wind Speed Gust Speed Precip Events Conditions
12:53 AM 8.1 °F -0.5 °F 3.9 °F 83% 30.04 in 10.0 mi NW 4.6 mph - N/A   Overcast
1:02 AM 8.6 °F -1.3 °F 6.8 °F 92% 30.03 in 10.0 mi NW 5.8 mph - N/A   Overcast
1:53 AM 9.0 °F -0.9 °F 6.1 °F 88% 30.04 in 10.0 mi NW 5.8 mph - N/A   Overcast
2:53 AM 10.0 °F 0.4 °F 6.1 °F 84% 30.04 in 10.0 mi NW 5.8 mph - N/A   Overcast
3:53 AM 10.0 °F 1.8 °F 8.1 °F 92% 30.03 in 9.0 mi North 4.6 mph - N/A   Overcast
4:53 AM 10.9 °F 4.7 °F 8.1 °F 88% 30.02 in 9.0 mi NNW 3.5 mph - N/A   Overcast
5:01 AM 10.4 °F - 8.6 °F 92% 30.00 in 9.0 mi Calm Calm - N/A   Overcast
5:44 AM 10.4 °F 2.2 °F 8.6 °F 92% 29.99 in 8.0 mi NNW 4.6 mph - N/A   Overcast
5:53 AM 10.9 °F 4.7 °F 9.0 °F 92% 30.00 in 8.0 mi NNW 3.5 mph - N/A   Overcast
6:53 AM 12.0 °F 2.7 °F 9.0 °F 88% 30.01 in 10.0 mi NNW 5.8 mph - N/A   Overcast
7:53 AM 12.0 °F 2.7 °F 10.0 °F 92% 30.00 in 6.0 mi North 5.8 mph - N/A   Overcast
8:53 AM 12.0 °F 2.7 °F 9.0 °F 88% 30.00 in 6.0 mi North 5.8 mph - N/A   Overcast
9:53 AM 14.0 °F 8.2 °F 10.9 °F 88% 29.99 in 6.0 mi NNW 3.5 mph - 0.00 in   Overcast
10:23 AM 14.0 °F 8.2 °F 10.4 °F 86% 29.97 in 7.0 mi NNE 3.5 mph - N/A   Overcast
10:53 AM 16.0 °F - 12.9 °F 88% 29.98 in 9.0 mi Calm Calm - N/A   Overcast
11:39 AM 17.6 °F - 12.2 °F 79% 29.93 in 10.0 mi Calm Calm - N/A   Partly Cloudy
11:53 AM 19.0 °F - 14.0 °F 81% 29.94 in 10.0 mi Calm Calm - N/A   Clear
12:12 PM 19.4 °F 12.8 °F 14.0 °F 80% 29.91 in 10.0 mi East 4.6 mph - N/A   Mostly Cloudy
12:35 PM 19.4 °F 12.8 °F 12.2 °F 74% 29.90 in 10.0 mi SE 4.6 mph - N/A   Scattered Clouds
12:53 PM 19.0 °F - 12.9 °F 77% 29.91 in 10.0 mi Calm Calm - N/A   Clear
1:53 PM 21.0 °F - 12.9 °F 71% 29.87 in 10.0 mi Calm Calm - N/A   Clear
2:53 PM 21.9 °F 15.7 °F 12.0 °F 66% 29.85 in 10.0 mi North 4.6 mph - N/A   Clear
3:53 PM 21.0 °F 12.4 °F 14.0 °F 74% 29.83 in 10.0 mi NNE 6.9 mph - N/A   Clear
4:53 PM 19.9 °F 11.1 °F 12.9 °F 74% 29.81 in 10.0 mi NNE 6.9 mph - N/A   Clear
5:53 PM 17.1 °F 8.7 °F 10.9 °F 77% 29.82 in 10.0 mi NNW 5.8 mph - N/A   Clear
6:53 PM 16.0 °F 8.8 °F 10.9 °F 81% 29.82 in 10.0 mi NW 4.6 mph - N/A   Clear
7:53 PM 17.1 °F 11.7 °F 12.0 °F 81% 29.81 in 10.0 mi WNW 3.5 mph - N/A   Mostly Cloudy
8:53 PM 16.0 °F - 10.9 °F 81% 29.80 in 10.0 mi Calm Calm - N/A   Mostly Cloudy
9:53 PM 15.1 °F - 12.0 °F 88% 29.80 in 10.0 mi Calm Calm - N/A   Overcast
10:53 PM 16.0 °F - 12.9 °F 88% 29.78 in 7.0 mi Calm Calm - N/A   Overcast
11:53 PM 17.1 °F - 14.0 °F 88% 29.77 in 8.0 mi Calm Calm - 0.00 in   Overcast